Location: Cactus School
(34.5700°N, 118.0931°W)
Time: 01:26:04
(UTC-08:00)

Tiangong 1 - Visible Passes

Search period start: 25 November 2017 00:00
Search period end: 05 December 2017 00:00
Orbit: 283 x 307 km, 42.8° (Epoch: 24 November)

Date Brightness Start Highest point End Pass type
(mag) Time Alt. Az. Time Alt. Az. Time Alt. Az.
25 Nov 1.2 17:49:08 10° W 17:51:39 46° NNW 17:52:29 31° NNE visible
26 Nov 2.1 17:55:46 10° W 17:58:01 25° NNW 17:58:31 24° N visible
27 Nov 2.7 18:02:26 10° WNW 18:04:20 18° NNW 18:04:22 18° N visible
28 Nov 3.1 18:09:00 10° NW 18:10:05 14° NNW 18:10:05 14° NNW visible
29 Nov 3.5 18:15:16 10° NNW 18:15:38 11° NNW 18:15:38 11° NNW visible
30 Nov 3.7 18:21:05 10° NNW 18:21:06 10° NNW 18:21:06 10° NNW visible
03 Dec 3.9 18:36:55 10° NW 18:36:57 10° NW 18:36:57 10° NW visible
04 Dec 2.4 17:07:44 10° NW 17:09:41 18° NNE 17:11:37 10° ENE visible
04 Dec 4.0 18:42:00 10° WNW 18:42:11 11° WNW 18:42:11 11° WNW visible
